Location: Frankfurt am Main
(50.1109°N, 8.6821°E)
Time: 23:31:24
(UTC+01:00)

Envisat - Visible Passes

Search period start: 21 March 2019 00:00
Search period end: 31 March 2019 00:00
Orbit: 764 x 766 km, 98.2° (Epoch: 21 March)

Date Brightness Start Highest point End Pass type
(mag) Time Alt. Az. Time Alt. Az. Time Alt. Az.
21 Mar 5.8 20:19:26 10° SW 20:22:51 18° W 20:26:17 10° NW visible
22 Mar 4.8 19:41:06 10° SSW 19:45:43 35° W 19:50:23 10° NNW visible
23 Mar 3.4 19:03:44 10° S 19:08:48 70° WSW 19:13:54 10° NNW visible
23 Mar 6.3 20:47:43 10° W 20:48:46 11° W 20:49:50 10° WNW visible
24 Mar 5.6 20:07:36 10° SW 20:11:29 22° W 20:15:25 10° NW visible
25 Mar 4.4 19:29:37 10° S 19:34:26 43° W 19:39:18 10° NNW visible
26 Mar 6.0 20:34:57 10° WSW 20:37:23 13° W 20:39:49 10° WNW visible
27 Mar 5.3 19:55:54 10° SSW 20:00:10 27° W 20:04:27 10° NW visible
28 Mar 4.0 19:18:12 10° S 19:23:10 53° W 19:28:09 10° NNW visible
29 Mar 5.9 20:22:48 10° SW 20:26:00 17° W 20:29:12 10° NW visible
30 Mar 4.9 19:44:18 10° SSW 19:48:51 32° W 19:53:25 10° NNW visible
